Weather Roundup
Issued by NWS Chicago, IL

Home | Current Version | Previous Version | Graphics & Text | Print | Product List | Glossary On
Versions: 1 2 3 4 5 6 7 8 9 10 11 12 13 14 15 16 17 18 19 20 21 22 23 24 25 26 27 28 29 30 31 32 33 34 35 36 37 38 39 40 41 42 43 44 45 46 47 48 49 50
000
NZUS59 KLOT 050608
HRRLOT

CHICAGO AREA WEATHER ROUNDUP
NATIONAL WEATHER SERVICE CHICAGO/ROMEOVILLE IL
100 AM CDT THU MAY 05 2016

NOTE: "FAIR" INDICATES FEW OR NO CLOUDS BELOW 12,000 FEET WITH NO
SIGNIFICANT WEATHER AND/OR OBSTRUCTIONS TO VISIBILITY.

* THESE STATIONS ARE NOT UNDER NWS QUALITY CONTROL. THEY ALSO MAY NOT
  REPORT WEATHER SUCH AS PRECIPITATION OR FOG.

ILZ005-006-012>014-019>023-050700-
NORTHEAST ILLINOIS

CITY           SKY/WX    TMP DP  RH WIND       PRES   REMARKS
OHARE          MOCLDY    43  33  68 N22G32    29.88S
6HR MIN TEMP:  42; 6HR MAX TEMP:  45;

MIDWAY         CLOUDY    44  32  62 N20G31    29.87S
6HR MIN TEMP:  44; 6HR MAX TEMP:  47;

AURORA         CLEAR     38  34  85 N7        29.90S
6HR MIN TEMP:  38; 6HR MAX TEMP:  54;

LANSING*       CLOUDY    43  34  72 N17G29    29.86S
JOLIET*        CLEAR     44  36  73 N9G16     29.89S
WAUKEGAN       CLOUDY    42  33  70 N14G24    29.89S
6HR MIN TEMP:  41; 6HR MAX TEMP:  43;

DUPAGE AIRPORT CLEAR     39  32  76 N12       29.89S
6HR MIN TEMP:  38; 6HR MAX TEMP:  52;

WHEELING       MOCLDY    43  33  68 N15G29    29.90S
6HR MIN TEMP:  42; 6HR MAX TEMP:  45;

KANKAKEE*      CLOUDY    44  34  69 N18       29.86F
MORRIS*        CLEAR     41  36  81 N3        29.89S
LEWIS AIRPORT* MOCLDY    42  33  70 N17G24    29.88S
$$

WIZ051-052-058>065-066-070>072-050700-
SOUTHEAST WISCONSIN

CITY           SKY/WX    TMP DP  RH WIND       PRES   REMARKS
MILWAUKEE      MOCLDY    42  33  70 N18G24    29.92S
6HR MIN TEMP:  40; 6HR MAX TEMP:  43;

KENOSHA*       CLOUDY    42  34  73 N16G23    29.91R
RACINE*        MOCLDY    42  34  73 N18G26    29.93R
BURLINGTON     CLEAR     36  32  86 N5        29.92S
WAUKESHA       PTCLDY    36  32  87 N7        29.94S
WEST BEND      PTCLDY    37  32  81 N7        29.94S
$$

INZ001>003-010>013-019-020-050700-
NORTHWEST INDIANA

CITY           SKY/WX    TMP DP  RH WIND       PRES   REMARKS
GARY*          CLOUDY    43  41  91 N25G37    29.87R
6HR MIN TEMP:  43; 6HR MAX TEMP:  46;

MICHIGAN CITY* NOT AVBL
RENSSELAER*    NOT AVBL
VALPARAISO     CLOUDY    40  37  89 N22G33    29.81S
$$

LMZ740>746-050700-
SOUTHERN LAKE MICHIGAN

STATION/POSITION TIME  SKY/WX   TEMP WIND        PRES    VSBY
                                AIR  DIR/SP/G
                 (UTC)          (F)  (DEG/KT/KT) (MB)    (MI)
HARRISON CRIB    0510            43  360/ 30/ 36   N/A
BURNHAM HARBOR   0600            43  330/ 20/ 28   N/A
CALUMET HARBOR   0500            43  340/ 21/ 32 1011.0R
BURNS HARBOR     0512            42  360/ 27     1010.5R
MICHIGAN CITY    0500            41  330/ 32/ 35   N/A
$$

ABBREVIATIONS USED IN REMARKS
   TC - TEMPERATURE IN CELSIUS
  WCI - WIND CHILL INDEX
   HX - HEAT INDEX
  VSB - VISIBILITY
$$




USA.gov is the U.S. government's official web portal to all federal, state and local government web resources and services.